Find Starlink 11365

NORAD ID: 62886 Int'l Des: 2025-024 Owner: SPXS Country: US Constellation: starlink operational
LEOCIRCULAR

リアルタイム位置

3D地球を読み込み中...

Starlink 11365について

説明を読み込み中...

次回通過

Passes for default location (London). Set your location on the main map for personalized predictions.

高度履歴

Loading altitude history...

軌道要素

1 62886U 25024H 26127.14584711 .00277473 00000-0 20664-2 0 9992
2 62886 43.0020 188.7973 0003416 247.5341 112.5165 15.71159733 72668
Epoch: May 7, 2026 • Age: 11 hours

現在のステータス

高度 354.4 km
速度 7.70 km/s
衛星直下点 -5.03°S, 78.76°W
打ち上げ日 Feb 4, 2025
運用期間 1.2 years
タイプ internet

技術仕様

分類 Payload
質量 960.00 kg
乾燥質量 910.00 kg
総質量 960.00 kg
長さ 0.30 m
直径 4.10 m
スパン 29.00 m
形状 Box + pan
製造者 SPXS
バスタイプ Starlink V2MD
フェーズステータス In Orbit
所有者/国 SPXS/US

Most Searched